N7KEB Weather Reports


time (UTC)temp
C
wind
direction
speed
KPH
gust
KPH
rain 1hr
cm
rain 24hr
cm
rain mn
cm
humidity
%
barometer
mb
20260505173048 11 141 4.8 8.0 0.00 0.91 0.91 91 1014.2
20260505171551 10 158 3.2 11.3 0.00 0.91 0.91 92 1014.2
20260505170045 10 128 3.2 9.7 0.00 0.91 0.91 93 1014.2
20260505164554 10 132 3.2 9.7 0.00 0.91 0.91 94 1014.0
20260505163048 10 180 4.8 11.3 0.00 0.91 0.91 94 1013.8
20260505161555 10 145 4.8 12.9 0.00 0.91 0.91 95 1013.7
20260505153054 9 130 4.8 16.1 0.00 0.91 0.91 99 1013.2
20260505151541 9 109 4.8 11.3 0.00 0.91 0.91 99 1013.3
20260505124606 8 138 4.8 16.1 0.30 0.76 0.76 99 1012.0
20260505123058 8 115 9.7 19.3 0.23 0.69 0.69 98 1011.9
20260505121549 9 100 3.2 8.0 0.13 0.58 0.58 98 1011.7
20260505120100 9 76 0.0 3.2 0.00 0.46 0.46 98 1011.2
20260505114545 9 0 0.0 3.2 0.03 0.46 0.46 97 1011.0
20260505113054 8 197 3.2 9.7 0.03 0.46 0.46 97 1010.8
20260505111549 9 180 0.0 3.2 0.05 0.46 0.46 97 1011.1
20260505101549 8 230 4.8 9.7 0.10 0.41 0.41 96 1011.0
20260505100050 8 232 8.0 20.9 0.15 0.41 0.41 96 1010.9
20260505094549 8 235 6.4 16.1 0.13 0.38 0.38 96 1011.0
20260505093103 8 245 9.7 19.3 0.10 0.33 0.33 96 1011.3
20260505091550 8 242 9.7 17.7 0.13 0.30 0.30 96 1011.2
20260505090050 9 290 6.4 14.5 0.15 0.25 0.25 96 1011.3
20260505084554 9 211 4.8 11.3 0.23 0.25 0.25 96 1010.7
20260505083054 8 225 9.7 17.7 0.20 0.23 0.23 95 1010.7
20260505081551 9 213 6.4 12.9 0.18 0.18 0.18 94 1011.5
20260505080054 9 239 6.4 14.5 0.10 0.10 0.10 91 1011.8
20260505074551 10 257 1.6 8.0 0.03 0.03 0.03 87 1011.9
20260505073051 10 0 0.0 4.8 0.03 0.03 0.03 83 1011.9
20260505071543 10 175 1.6 14.5 0.00 0.00 0.00 80 1011.6
20260505070045 11 233 11.3 20.9 0.00 0.00 0.00 77 1010.9
20260505064554 11 255 8.0 16.1 0.00 0.00 0.00 75 1011.0
20260505063046 11 201 3.2 16.1 0.00 0.00 0.00 73 1011.1
20260505061543 11 163 6.4 17.7 0.00 0.00 0.00 72 1011.1
20260505060042 11 0 0.0 4.8 0.00 0.00 0.00 73 1011.1
20260505054543 11 191 8.0 19.3 0.00 0.00 0.00 72 1010.8
20260505053105 11 131 1.6 11.3 0.00 0.00 0.00 75 1011.1
20260505051546 11 192 6.4 20.9 0.00 0.00 0.00 72 1010.9
20260505041546 11 249 12.9 24.1 0.00 0.00 0.00 74 1010.6
20260505040050 11 239 12.9 25.7 0.00 0.00 0.00 77 1010.4
20260505034557 11 214 19.3 29.0 0.00 0.00 0.00 76 1010.3
20260505033051 12 213 19.3 30.6 0.00 0.00 0.00 73 1010.5
20260505031541 12 236 11.3 29.0 0.00 0.00 0.00 73 1010.4
20260505030051 12 261 19.3 32.2 0.00 0.00 0.00 73 1010.2
20260505024544 12 247 22.5 35.4 0.00 0.00 0.00 72 1010.4
20260505023048 12 271 17.7 32.2 0.00 0.00 0.00 71 1010.6
20260505021551 12 247 17.7 25.7 0.00 0.00 0.00 72 1010.3
20260505020043 12 253 17.7 27.4 0.00 0.00 0.00 71 1010.1
20260505014549 13 244 12.9 27.4 0.00 0.00 0.00 70 1010.2
20260505013047 13 198 17.7 33.8 0.00 0.00 0.00 64 1010.1
20260505011605 13 215 17.7 33.8 0.00 0.00 0.00 63 1009.9
20260505010049 13 227 27.4 38.6 0.00 0.00 0.00 63 1009.5
20260505004541 15 192 14.5 30.6 0.00 0.00 0.00 58 1010.4
20260505003038 15 216 12.9 20.9 0.00 0.00 0.00 58 1009.9
20260505001538 15 184 6.4 11.3 0.00 0.00 0.00 59 1010.3
20260505000046 15 161 8.0 20.9 0.00 0.00 0.00 60 1010.2
20260504234544 15 138 12.9 25.7 0.00 0.00 0.00 62 1010.2
20260504233057 13 106 16.1 29.0 0.00 0.00 0.00 64 1010.3
20260504231549 13 136 9.7 29.0 0.00 0.00 0.00 66 1010.4
20260504230040 13 155 22.5 41.8 0.00 0.00 0.00 65 1010.4
20260504224544 15 141 29.0 48.3 0.00 0.00 0.00 56 1010.1
20260504223047 18 126 11.3 22.5 0.00 0.00 0.00 48 1009.9
20260504221544 18 227 14.5 22.5 0.00 0.00 0.00 51 1009.7
20260504220043 18 252 19.3 30.6 0.00 0.00 0.00 52 1009.5
20260504214538 17 246 19.3 29.0 0.00 0.00 0.00 56 1009.6
20260504213049 16 250 16.1 33.8 0.00 0.00 0.00 54 1009.7
20260504211546 16 255 24.1 35.4 0.00 0.00 0.00 64 1009.6
20260504210043 16 259 12.9 27.4 0.00 0.00 0.00 70 1009.9
20260504204540 15 266 11.3 22.5 0.00 0.00 0.00 67 1010.2
20260504203047 15 284 6.4 12.9 0.00 0.00 0.00 62 1010.3
20260504201549 15 296 4.8 12.9 0.00 0.00 0.00 61 1010.6
20260504200046 14 291 3.2 11.3 0.00 0.00 0.00 68 1010.8
20260504194601 13 22 4.8 24.1 0.00 0.00 0.00 63 1011.0
20260504193056 14 205 9.7 17.7 0.00 0.00 0.00 63 1011.4
20260504191605 14 219 9.7 22.5 0.00 0.00 0.00 63 1011.2
20260504190049 13 223 11.3 20.9 0.00 0.00 0.00 65 1011.5
20260504184549 13 204 11.3 25.7 0.00 0.00 0.00 64 1011.6
20260504183045 14 142 17.7 27.4 0.00 0.00 0.00 66 1011.8
20260504181551 14 171 12.9 24.1 0.00 0.00 0.00 64 1011.9
20260504180047 15 152 17.7 25.7 0.00 0.00 0.00 60 1011.8
20260504174551 16 179 6.4 17.7 0.00 0.00 0.00 54 1011.6